Weather in Vognema

Russia / Vologda Oblast     59°58′32″N   38°09′19″E
temp.,
°C
wind,
m/s
gust,
m/s
humid.,
%
clouds,
%
prec.,
mm/h
press.,
hPa
HPBL,
m
18 may, tue
tue1800:00+15ese4128476 0.0 1014318
03:00+15ese41485100 0.0 1013378
06:00+15ese4128533 0.3 1012352
09:00+20se510724 0.3 1012477
12:00+26se510481 0.0 10121139
15:00+28sse511410 0.0 10113034
18:00+26se510491 0.0 10111243
21:00+19se3137466 0.0 1011371
19 may, wed
wed1900:00+18se414858 0.0 1011434
03:00+16ese311928 0.0 1011324
06:00+18se412857 0.0 1011393
09:00+23se5125917 0.0 1010719
12:00+27se614439 0.0 10092094
15:00+28sse514425 0.0 10093520
18:00+26se512505 0.0 10082123
21:00+21se4136865 0.1 1009531
20 may, thu
thu2000:00+18se41386100 3.8 1009477
03:00+17se4129292 6.3 1009474
06:00+17se4119494 0.8 1009453
09:00+19se4785100 2.2 1009546
12:00+25se59505 0.0 10071372
15:00+26se6135021 0.1 10052619
18:00+19s5148565 2.9 10041098
21:00+16sse411899 3.7 1005733
21 may, fri
fri2100:00+14sse412935 0.0 1005574
03:00+13sse4119316 0.1 1005737
06:00+13s4990100 0.0 1006569
09:00+14ssw3684100 0.1 1007740
12:00+10wnw2797100 2.9 1009348
15:00+16wnw356297 3.5 10101280
18:00+16wsw135783 0.0 1010532
21:00+11wsw22745 0.1 101121
22 may, sat
sat2200:00+9wsw267678 0.0 1013118
03:00+8wsw28844 0.0 1014178
06:00+9w28745 0.0 1016301
09:00+14wsw47503 0.0 10171531
12:00+16w36405 0.0 10171961
15:00+18sw3539100 0.0 10172338
18:00+17ssw254837 0.0 10171826
21:00+11sse397553 0.0 1017184